This is the latest recevied weather packets stored in our database for station/object R1CBW-13. If no packets are shown the sender has not sent any weather packets the latest 10 day(s).
| Time | Temp. | Humidity | Pressure | Rain* | Wind** | Luminosity | Snow |
|---|---|---|---|---|---|---|---|
| 1777539559 | 7.78° C | 42% | 1019.7 hPa | 0 mm | - | - | - |
| 1777539499 | 8.33° C | 42% | 1019.8 hPa | 0 mm | - | - | - |
| 1777539439 | 8.33° C | 43% | 1019.7 hPa | 0 mm | - | - | - |
| 1777539379 | 7.22° C | 43% | 1019.8 hPa | 0 mm | - | - | - |
| 1777539319 | 7.78° C | 43% | 1019.7 hPa | 0 mm | - | - | - |
| 1777539259 | 7.78° C | 43% | 1019.8 hPa | 0 mm | - | - | - |
| 1777539199 | 7.78° C | 43% | 1019.8 hPa | 0 mm | - | - | - |
| 1777539139 | 7.22° C | 43% | 1019.9 hPa | 0 mm | - | - | - |
| 1777539079 | 7.78° C | 43% | 1019.9 hPa | 0 mm | - | - | - |
| 1777539019 | 7.78° C | 43% | 1019.9 hPa | 0 mm | - | - | - |
| 1777538959 | 7.78° C | 43% | 1019.8 hPa | 0 mm | - | - | - |
| 1777538899 | 7.78° C | 43% | 1019.8 hPa | 0 mm | - | - | - |
| 1777538839 | 7.22° C | 44% | 1019.9 hPa | 0 mm | - | - | - |
| 1777538779 | 6.67° C | 45% | 1019.9 hPa | 0 mm | - | - | - |
| 1777538719 | 6.67° C | 44% | 1020 hPa | 0 mm | - | - | - |
| 1777538659 | 6.67° C | 45% | 1020 hPa | 0 mm | - | - | - |
| 1777538599 | 6.67° C | 45% | 1020.2 hPa | 0 mm | - | - | - |
| 1777538539 | 6.11° C | 45% | 1020.1 hPa | 0 mm | - | - | - |
| 1777538479 | 6.11° C | 46% | 1020 hPa | 0 mm | - | - | - |
| 1777538419 | 6.67° C | 45% | 1019.9 hPa | 0 mm | - | - | - |
| 1777538359 | 7.22° C | 45% | 1020 hPa | 0 mm | - | - | - |
| 1777538299 | 7.22° C | 45% | 1020 hPa | 0 mm | - | - | - |
| 1777538239 | 7.22° C | 46% | 1020.1 hPa | 0 mm | - | - | - |
| 1777538179 | 6.67° C | 45% | 1020.1 hPa | 0 mm | - | - | - |
| 1777538119 | 7.22° C | 46% | 1020 hPa | 0 mm | - | - | - |
* Rain latest hour (hover to see other rain measurements)
** Current wind speed in m/s (hover to see current wind gust speed)